McAllen, TX

6:45 AM CST on February 23, 2018 (GMT -0600)
McAllen Miller International

Weather History for KMFE - December, 2011

Change the Weather History Date:

Thursday, December 22, 2011

  Actual Average Record
Temperature  
Mean Temperature 62 °F 61 °F  
Max Temperature 72 °F 71 °F 89 °F (2017)
Min Temperature 52 °F 51 °F 26 °F (1989)
Degree Days  
Heating Degree Days 3 6  
Month to date heating degree days 102 115  
Since 1 July heating degree days 134 175  
Cooling Degree Days 0 2  
Month to date cooling degree days 63 64  
Year to date cooling degree days 5237 4433  
Growing Degree Days 12 (Base 50)    
Moisture  
Dew Point 50 °F    
Average Humidity 66    
Maximum Humidity 93    
Minimum Humidity 38    
Precipitation  
Precipitation T in 0.04 in 0.58 in (1995)
Month to date precipitation 2.18 0.82  
Year to date precipitation 10.31 21.83  
Snow  
Snow 0.00 in - - ()
Month to date snowfall 0.0  
Since 1 July snowfall 0.0  
Snow Depth -    
Sea Level Pressure  
Sea Level Pressure 30.02 in    
Wind  
Wind Speed 7 mph (NNW)    
Max Wind Speed 17 mph    
Max Gust Speed 23 mph    
Visibility 10 miles    
Events Rain    
T = Trace of Precipitation, MM = Missing Value Source: NWS Daily Summary

Daily Weather History Graph

Daily Weather History Graph

Search for Another Location

Airport or City:

Trip Planner

Search our weather history database for the weather conditions in past years. The results will help you decide how hot, cold, wet, or windy it might be!

Date:

Astronomy

Dec. 22, 2011 Rise Set
Actual Time 7:16 AM CST 5:46 PM CST
Civil Twilight 6:51 AM CST 6:11 PM CST
Nautical Twilight 6:22 AM CST 6:40 PM CST
Astronomical Twilight 5:54 AM CST 7:08 PM CST
Moon 5:02 AM CST (12/22) 3:57 PM CST (12/22)
Length of Visible Light 11h 20m
Length of Day
10h 30m
Waning Crescent, 5% of the Moon is Illuminated
Dec 22
Waning Crescent
Dec 24
New
Jan 1
First Quarter
Jan 9
Full
Jan 16
Last Quarter

Hourly Weather History & Observations

Time (CST) Temp. Dew Point Humidity Pressure Visibility Wind Dir Wind Speed Gust Speed Precip Events Conditions
12:53 AM 54.0 °F 51.1 °F 90% 29.90 in 10.0 mi NNW 16.1 mph 23.0 mph N/A   Overcast
1:14 AM 53.6 °F 50.0 °F 88% 29.91 in 7.0 mi NNW 15.0 mph 18.4 mph 0.00 in Rain Light Rain
1:50 AM 51.8 °F 48.2 °F 88% 29.91 in 8.0 mi NNW 9.2 mph - 0.00 in Rain Light Rain
1:53 AM 51.8 °F 50.0 °F 94% 29.91 in 8.0 mi NNW 9.2 mph - N/A Rain Light Rain
2:53 AM 52.0 °F 48.9 °F 89% 29.91 in 10.0 mi NNW 12.7 mph - 0.00 in Rain Light Rain
3:53 AM 52.0 °F 50.0 °F 93% 29.92 in 10.0 mi North 10.4 mph - N/A   Overcast
4:39 AM 53.6 °F 50.0 °F 88% 29.93 in 10.0 mi NNW 8.1 mph - N/A   Overcast
4:53 AM 53.1 °F 50.0 °F 89% 29.93 in 10.0 mi NNW 5.8 mph - N/A   Overcast
5:53 AM 52.0 °F 48.9 °F 89% 29.96 in 10.0 mi NW 6.9 mph - N/A   Scattered Clouds
6:08 AM 51.8 °F 50.0 °F 94% 29.97 in 10.0 mi NW 5.8 mph - N/A   Scattered Clouds
6:16 AM 53.6 °F 50.0 °F 88% 29.98 in 10.0 mi NW 5.8 mph - N/A   Mostly Cloudy
6:53 AM 53.1 °F 50.0 °F 89% 30.01 in 10.0 mi NW 9.2 mph - N/A   Overcast
7:30 AM 53.6 °F 50.0 °F 88% 30.02 in 10.0 mi NNW 8.1 mph - N/A   Overcast
7:53 AM 53.6 °F 50.0 °F 88% 30.04 in 10.0 mi NW 8.1 mph - N/A   Overcast
8:53 AM 53.6 °F 51.8 °F 94% 30.08 in 10.0 mi NNW 9.2 mph - N/A   Overcast
9:53 AM 54.0 °F 51.1 °F 90% 30.11 in 10.0 mi North 5.8 mph - N/A   Overcast
10:53 AM 59.0 °F 51.1 °F 75% 30.11 in 10.0 mi NNW 4.6 mph - N/A   Partly Cloudy
11:53 AM 64.0 °F 51.1 °F 63% 30.09 in 10.0 mi NW 6.9 mph - N/A   Clear
12:53 PM 66.9 °F 50.0 °F 54% 30.06 in 10.0 mi NNW 9.2 mph - N/A   Clear
1:53 PM 70.0 °F 48.0 °F 46% 30.03 in 10.0 mi NW 11.5 mph 18.4 mph N/A   Clear
2:53 PM 71.1 °F 46.9 °F 42% 30.03 in 10.0 mi North 11.5 mph - N/A   Clear
3:53 PM 72.0 °F 46.9 °F 41% 30.03 in 10.0 mi North 11.5 mph - N/A   Clear
4:53 PM 71.6 °F 44.6 °F 38% 30.04 in 10.0 mi North 11.5 mph - N/A   Clear
5:53 PM 68.0 °F 46.0 °F 45% 30.06 in 10.0 mi NNE 4.6 mph - N/A   Clear
6:53 PM 62.1 °F 48.0 °F 60% 30.08 in 10.0 mi Calm Calm - N/A   Clear
7:53 PM 60.1 °F 48.9 °F 67% 30.10 in 10.0 mi Calm Calm - N/A   Clear
8:53 PM 61.0 °F 52.0 °F 72% 30.12 in 10.0 mi East 4.6 mph - N/A   Clear
9:53 PM 57.0 °F 51.1 °F 81% 30.15 in 10.0 mi South 3.5 mph - N/A   Clear
10:53 PM 53.6 °F 51.8 °F 94% 30.16 in 10.0 mi Calm Calm - N/A   Clear
11:53 PM 53.1 °F 50.0 °F 89% 30.16 in 10.0 mi Calm Calm - N/A   Clear